Hourly Weather Syktyvkar

Today, 11 July, Saturday

Time Temperature Precipitation Wind Pressure Humidity
00:00 +15°C° 0 mm 2 mps 748 mmHg 75%
01:00 +15°C° 0 mm 2 mps 748 mmHg 77%
02:00 +14°C° 0 mm 2 mps 748 mmHg 80%
03:00 +14°C° 0 mm 2 mps 749 mmHg 83%
04:00 +15°C° 0 mm 2 mps 749 mmHg 78%
05:00 +16°C° 0 mm 2 mps 749 mmHg 72%
06:00 +18°C° 0 mm 2 mps 749 mmHg 66%
07:00 +19°C° 0 mm 2 mps 750 mmHg 59%
08:00 +21°C° 0 mm 2 mps 750 mmHg 51%
09:00 +22°C° 0 mm 3 mps 750 mmHg 43%
10:00 +24°C° 0 mm 3 mps 750 mmHg 41%
11:00 +25°C° 0 mm 3 mps 750 mmHg 38%
12:00 +25°C° 0 mm 3 mps 750 mmHg 35%
13:00 +26°C° 0 mm 3 mps 750 mmHg 35%
14:00 +26°C° 0 mm 3 mps 750 mmHg 35%
15:00 +26°C° 0 mm 3 mps 749 mmHg 35%
16:00 +26°C° 0 mm 3 mps 749 mmHg 39%
17:00 +25°C° 0 mm 3 mps 749 mmHg 42%
18:00 +25°C° 0 mm 2 mps 748 mmHg 45%
19:00 +23°C° 0 mm 2 mps 748 mmHg 51%
20:00 +20°C° 0 mm 2 mps 748 mmHg 58%
21:00 +18°C° 0 mm 2 mps 748 mmHg 64%
22:00 +19°C° 0 mm 2 mps 748 mmHg 63%
23:00 +19°C° 0 mm 2 mps 748 mmHg 62%

Tomorrow, 12 July, Sunday

Time Temperature Precipitation Wind Pressure Humidity
00:00 +19°C° 0 mm 3 mps 747 mmHg 61%
01:00 +19°C° 0 mm 3 mps 747 mmHg 61%
02:00 +19°C° 0 mm 4 mps 746 mmHg 61%
03:00 +19°C° 0 mm 4 mps 746 mmHg 62%
04:00 +19°C° 0.1 mm 4 mps 746 mmHg 66%
05:00 +19°C° 0.1 mm 5 mps 745 mmHg 70%
06:00 +19°C° 0.1 mm 5 mps 745 mmHg 75%
07:00 +20°C° 0 mm 5 mps 744 mmHg 70%
08:00 +22°C° 0 mm 6 mps 744 mmHg 65%
09:00 +23°C° 0 mm 6 mps 744 mmHg 60%
10:00 +24°C° 0 mm 6 mps 744 mmHg 52%
11:00 +27°C° 0 mm 7 mps 744 mmHg 45%
12:00 +28°C° 0 mm 7 mps 744 mmHg 37%
13:00 +27°C° 0 mm 7 mps 745 mmHg 37%
14:00 +27°C° 0 mm 7 mps 745 mmHg 36%
15:00 +27°C° 0 mm 6 mps 746 mmHg 35%
16:00 +24°C° 0 mm 6 mps 746 mmHg 41%
17:00 +23°C° 0 mm 6 mps 746 mmHg 46%
18:00 +21°C° 0 mm 5 mps 746 mmHg 51%
19:00 +19°C° 0 mm 4 mps 746 mmHg 57%
20:00 +18°C° 0 mm 3 mps 747 mmHg 64%
21:00 +16°C° 0 mm 2 mps 747 mmHg 70%
22:00 +16°C° 0 mm 2 mps 747 mmHg 75%
23:00 +15°C° 0 mm 2 mps 748 mmHg 79%

Day after tomorrow, 13 July, Monday

Time Temperature Precipitation Wind Pressure Humidity
00:00 +14°C° 0 mm 2 mps 748 mmHg 84%
01:00 +13°C° 0 mm 2 mps 748 mmHg 86%
02:00 +13°C° 0 mm 2 mps 749 mmHg 89%
03:00 +12°C° 0 mm 1 mps 749 mmHg 92%
04:00 +14°C° 0 mm 2 mps 749 mmHg 84%
05:00 +15°C° 0 mm 2 mps 749 mmHg 76%
06:00 +16°C° 0 mm 2 mps 749 mmHg 68%
07:00 +18°C° 0 mm 2 mps 749 mmHg 59%
08:00 +21°C° 0 mm 1 mps 750 mmHg 51%
09:00 +22°C° 0 mm 1 mps 750 mmHg 42%
10:00 +24°C° 0 mm 1 mps 750 mmHg 39%
11:00 +25°C° 0 mm 1 mps 750 mmHg 35%
12:00 +27°C° 0 mm 1 mps 750 mmHg 32%
13:00 +27°C° 0 mm 1 mps 750 mmHg 32%
14:00 +26°C° 0 mm 1 mps 749 mmHg 32%
15:00 +26°C° 0 mm 1 mps 749 mmHg 32%
16:00 +26°C° 0 mm 1 mps 749 mmHg 36%
17:00 +25°C° 0 mm 2 mps 749 mmHg 41%
18:00 +24°C° 0 mm 2 mps 748 mmHg 45%
19:00 +23°C° 0 mm 2 mps 748 mmHg 50%
20:00 +20°C° 0 mm 2 mps 748 mmHg 54%
21:00 +19°C° 0 mm 2 mps 748 mmHg 59%
22:00 +18°C° 0.1 mm 2 mps 747 mmHg 65%
23:00 +17°C° 0.1 mm 3 mps 747 mmHg 71%

14 July, Tuesday

Time Temperature Precipitation Wind Pressure Humidity
00:00 +16°C° 0.1 mm 3 mps 747 mmHg 77%
01:00 +15°C° 0.3 mm 2 mps 747 mmHg 83%
02:00 +15°C° 0.3 mm 2 mps 746 mmHg 88%
03:00 +15°C° 0.3 mm 2 mps 746 mmHg 94%
04:00 +16°C° 0.4 mm 3 mps 746 mmHg 93%
05:00 +17°C° 0.4 mm 3 mps 746 mmHg 93%
06:00 +18°C° 0.4 mm 3 mps 745 mmHg 93%
07:00 +19°C° 0.4 mm 3 mps 745 mmHg 92%
08:00 +20°C° 0.4 mm 4 mps 745 mmHg 90%
09:00 +21°C° 0.4 mm 4 mps 745 mmHg 89%
10:00 +21°C° 0.3 mm 3 mps 745 mmHg 87%
11:00 +22°C° 0.3 mm 3 mps 744 mmHg 85%
12:00 +24°C° 0.3 mm 3 mps 744 mmHg 83%
13:00 +26°C° 0 mm 3 mps 744 mmHg 72%
14:00 +28°C° 0 mm 3 mps 744 mmHg 61%
15:00 +30°C° 0 mm 3 mps 743 mmHg 49%
16:00 +30°C° 0 mm 3 mps 743 mmHg 52%
17:00 +30°C° 0 mm 3 mps 742 mmHg 55%
18:00 +30°C° 0 mm 3 mps 742 mmHg 58%
19:00 +27°C° 1.2 mm 2 mps 742 mmHg 70%
20:00 +25°C° 1.2 mm 2 mps 742 mmHg 83%
21:00 +21°C° 1.2 mm 2 mps 742 mmHg 95%
22:00 +21°C° 0.5 mm 2 mps 742 mmHg 96%
23:00 +20°C° 0.5 mm 2 mps 742 mmHg 97%

15 July, Wednesday

Time Temperature Precipitation Wind Pressure Humidity
00:00 +20°C° 0.5 mm 2 mps 742 mmHg 97%
01:00 +20°C° 0.3 mm 3 mps 742 mmHg 96%
02:00 +20°C° 0.3 mm 3 mps 742 mmHg 96%
03:00 +20°C° 0.3 mm 3 mps 742 mmHg 95%
04:00 +20°C° 0.2 mm 3 mps 741 mmHg 95%
05:00 +20°C° 0.2 mm 4 mps 741 mmHg 95%
06:00 +20°C° 0.2 mm 4 mps 741 mmHg 94%
07:00 +21°C° 0.7 mm 4 mps 741 mmHg 94%
08:00 +21°C° 0.7 mm 4 mps 741 mmHg 94%
09:00 +22°C° 0.7 mm 4 mps 741 mmHg 93%
10:00 +23°C° 0.6 mm 4 mps 741 mmHg 87%
11:00 +26°C° 0.6 mm 5 mps 741 mmHg 82%
12:00 +27°C° 0.6 mm 5 mps 742 mmHg 76%
13:00 +26°C° 0.5 mm 4 mps 742 mmHg 80%
14:00 +24°C° 0.5 mm 3 mps 742 mmHg 84%
15:00 +21°C° 0.5 mm 2 mps 742 mmHg 89%
16:00 +21°C° 0.1 mm 2 mps 742 mmHg 90%
17:00 +20°C° 0.1 mm 2 mps 742 mmHg 92%
18:00 +19°C° 0.1 mm 2 mps 742 mmHg 93%
19:00 +19°C° 0.8 mm 2 mps 742 mmHg 94%
20:00 +18°C° 0.8 mm 2 mps 742 mmHg 96%
21:00 +17°C° 0.8 mm 2 mps 742 mmHg 97%
22:00 +17°C° 0.7 mm 3 mps 742 mmHg 97%
23:00 +17°C° 0.7 mm 3 mps 742 mmHg 97%

16 July, Thursday

Time Temperature Precipitation Wind Pressure Humidity
00:00 +17°C° 0.7 mm 3 mps 742 mmHg 97%
01:00 +16°C° 0 mm 3 mps 742 mmHg 97%
02:00 +16°C° 0 mm 2 mps 742 mmHg 97%
03:00 +16°C° 0 mm 2 mps 742 mmHg 98%
04:00 +16°C° 0.2 mm 3 mps 743 mmHg 97%
05:00 +16°C° 0.2 mm 3 mps 743 mmHg 97%
06:00 +16°C° 0.2 mm 3 mps 743 mmHg 97%
07:00 +15°C° 0 mm 4 mps 743 mmHg 96%
08:00 +15°C° 0 mm 4 mps 743 mmHg 95%
09:00 +15°C° 0 mm 4 mps 743 mmHg 93%
10:00 +17°C° 0.1 mm 4 mps 743 mmHg 89%
11:00 +18°C° 0.1 mm 4 mps 743 mmHg 85%
12:00 +18°C° 0.1 mm 4 mps 743 mmHg 80%
13:00 +17°C° 4.9 mm 4 mps 742 mmHg 86%
14:00 +15°C° 4.9 mm 5 mps 742 mmHg 92%
15:00 +14°C° 4.9 mm 5 mps 742 mmHg 97%
16:00 +14°C° 0.9 mm 4 mps 741 mmHg 97%
17:00 +14°C° 0.9 mm 4 mps 741 mmHg 97%
18:00 +14°C° 0.9 mm 3 mps 741 mmHg 97%
19:00 +14°C° 0.1 mm 3 mps 741 mmHg 97%
20:00 +14°C° 0.1 mm 4 mps 741 mmHg 97%
21:00 +14°C° 0.1 mm 4 mps 741 mmHg 97%
22:00 +14°C° 0 mm 4 mps 741 mmHg 97%
23:00 +13°C° 0 mm 3 mps 741 mmHg 97%
Show more